AI7R Weather Reports


Display with metric or nautical units.
time (UTC)temp
F
wind
direction
speed
MPH
gust
MPH
rain 1hr
in
rain 24hr
in
rain mn
in
humidity
%
barometer
mb
20260506144500 46 355 0.0 1.0 0.00 0.20 0.00 62 1010.8
20260506143000 45 351 0.0 0.0 0.00 0.20 0.00 65 1010.9
20260506141500 43 351 0.0 0.0 0.00 0.20 0.00 66 1010.8
20260506140004 42 351 0.0 0.0 0.00 0.20 0.00 66 1010.7
20260506134500 42 351 0.0 0.0 0.00 0.20 0.00 69 1010.5
20260506133000 41 351 0.0 0.0 0.00 0.20 0.00 68 1010.4
20260506131502 41 355 0.0 0.0 0.00 0.20 0.00 69 1010.2
20260506130005 40 355 0.0 0.0 0.00 0.20 0.00 69 1009.9
20260506124500 40 351 0.0 0.0 0.00 0.20 0.00 69 1009.7
20260506123000 40 351 0.0 0.0 0.00 0.20 0.00 68 1009.5
20260506121500 40 351 0.0 0.0 0.00 0.20 0.00 67 1009.5
20260506120003 41 351 0.0 0.0 0.00 0.20 0.00 67 1009.4
20260506112959 41 351 0.0 0.0 0.00 0.20 0.00 66 1009.3
20260506111459 41 351 0.0 0.0 0.00 0.20 0.00 69 1009.3
20260506110005 41 355 0.0 0.0 0.00 0.20 0.00 69 1009.3
20260506104459 41 314 0.0 0.0 0.00 0.21 0.00 69 1009.3
20260506101508 41 313 0.0 0.0 0.00 0.21 0.00 68 1009.2
20260506100012 41 313 0.0 0.0 0.00 0.21 0.00 68 1009.2
20260506094509 41 313 0.0 0.0 0.00 0.22 0.00 70 1009.1
20260506093009 41 314 0.0 0.0 0.00 0.22 0.00 68 1009.0
20260506091509 41 314 0.0 0.0 0.00 0.22 0.00 67 1008.9
20260506090013 41 314 0.0 0.0 0.00 0.22 0.00 68 1009.0
20260506084509 42 313 0.0 0.0 0.00 0.22 0.00 67 1008.8
20260506083009 42 313 0.0 0.0 0.00 0.22 0.00 68 1008.8
20260506081509 41 257 0.0 0.0 0.00 0.22 0.00 69 1008.8
20260506071509 43 256 0.0 0.0 0.00 0.22 0.00 65 1009.0
20260506061509 43 255 0.0 0.0 0.00 0.22 0.22 65 1008.6
20260506044508 44 255 0.0 0.0 0.00 0.22 0.22 64 1008.4
20260506043008 44 255 0.0 0.0 0.00 0.22 0.22 59 1008.4
20260506040012 44 255 0.0 0.0 0.00 0.22 0.22 60 1008.1
20260506034508 45 255 0.0 0.0 0.00 0.22 0.22 60 1007.9
20260506033008 46 255 0.0 0.0 0.00 0.22 0.22 57 1007.7
20260506031509 46 255 0.0 1.0 0.00 0.22 0.22 57 1007.4
20260506030012 47 254 0.0 2.0 0.00 0.22 0.22 56 1007.2
20260506024509 47 256 0.0 3.0 0.00 0.22 0.22 54 1007.0
20260506023009 48 224 1.0 6.0 0.00 0.22 0.22 52 1006.6
20260506021509 49 245 0.0 8.0 0.00 0.22 0.22 51 1006.4
20260506020012 49 263 1.0 4.0 0.00 0.22 0.22 49 1006.2
20260506014509 50 360 1.0 5.0 0.00 0.22 0.22 49 1006.1
20260506013008 50 271 1.0 7.0 0.00 0.22 0.22 48 1005.9
20260506010014 53 264 2.0 9.0 0.00 0.22 0.22 45 1005.5
20260506004508 55 360 3.0 12.0 0.00 0.22 0.22 40 1005.4
20260506003008 55 218 2.0 10.0 0.01 0.22 0.22 44 1005.3
20260506001508 54 360 3.0 12.0 0.01 0.22 0.22 43 1005.1
20260506000012 54 183 3.0 8.0 0.01 0.22 0.22 44 1005.0
20260505233010 57 248 4.0 12.0 0.00 0.21 0.21 44 1004.9
20260505231509 57 271 3.0 16.0 0.00 0.21 0.21 47 1004.8
20260505230011 57 267 2.0 11.0 0.00 0.21 0.21 49 1004.7
20260505224507 55 360 2.0 12.0 0.00 0.21 0.21 51 1004.9
20260505194510 46 280 1.0 8.0 0.07 0.19 0.19 91 1006.1
20260505193010 47 277 0.0 4.0 0.06 0.18 0.18 89 1006.4
20260505184508 50 360 2.0 9.0 0.00 0.12 0.12 89 1006.3
20260505183008 47 167 4.0 12.0 0.00 0.12 0.12 90 1006.3
20260505181508 48 360 2.0 8.0 0.00 0.12 0.12 93 1006.4
20260505180011 48 175 3.0 10.0 0.00 0.12 0.12 94 1006.5
20260505174508 48 360 3.0 10.0 0.02 0.12 0.12 95 1006.5
20260505173008 47 360 3.0 7.0 0.02 0.12 0.12 94 1006.6
20260505171508 46 360 2.0 7.0 0.03 0.12 0.12 94 1006.5
20260505170011 46 360 1.0 3.0 0.07 0.12 0.12 94 1006.5
20260505164507 46 360 1.0 5.0 0.07 0.10 0.10 93 1006.6
20260505163009 46 246 1.0 6.0 0.07 0.10 0.10 94 1006.7
20260505161508 46 209 0.0 4.0 0.06 0.09 0.09 93 1006.5
20260505153008 45 187 0.0 2.0 0.01 0.03 0.03 94 1006.5
20260505151508 45 360 0.0 1.0 0.01 0.03 0.03 93 1006.3